Location: Ca�n Batista
(41.4099°N, 1.7752°E)
Time: 14:22:27
(UTC+00:00)

Cosmos 192 - Pass Details

Date: 03 March 2021
Orbit: 700 x 714 km, 74.0° (Epoch: 21 April)

Event Time Altitude Azimuth Distance (km) Brightness Sun altitude
Rises 19:12:57 0° 184° (S) 3,069 7.6 -17.1°
Reaches altitude 10° 19:15:18 10° 180° (S) 2,157 6.8 -17.5°
Maximum altitude 19:20:01 52° 104° (ESE) 875 4.4 -18.4°
Drops below altitude 10° 19:24:46 10° 29° (NNE) 2,177 6.6 -19.3°
Sets 19:27:08 0° 25° (NNE) 3,102 7.5 -19.7°
